Weather History for Cahokia, IL

Change the Weather History Date:

Wednesday, February 12, 2014

  Actual Average Record
Temperature  
Mean Temperature 17 °F -  
Max Temperature 34 °F 42 °F 64 °F (1949)
Min Temperature 0 °F 27 °F 0 °F (1944)
Degree Days  
Heating Degree Days 48    
Moisture  
Dew Point 6 °F    
Average Humidity 70    
Maximum Humidity 91    
Minimum Humidity 38    
Precipitation  
Precipitation 0.00 in - - ()
Sea Level Pressure  
Sea Level Pressure 30.19 in    
Wind  
Wind Speed 0 mph (North)    
Max Wind Speed 4 mph    
Max Gust Speed -    
Visibility 10 miles    
Events      
Averages and records for this station are not official NWS values.
T = Trace of Precipitation, MM = Missing Value Source: NWS Daily Summary

Daily Weather History Graph

Daily Weather History Graph

Search for Another Location

Airport:

Trip Planner

Search our weather history database for the weather conditions in past years. The results will help you decide how hot, cold, wet, or windy it might be!

Date:

Astronomy

Feb. 12, 2014 Rise Set
Actual Time 6:54 AM CST 5:35 PM CST
Civil Twilight 6:27 AM CST 6:02 PM CST
Nautical Twilight 5:56 AM CST 6:33 PM CST
Astronomical Twilight 5:25 AM CST 7:04 PM CST
Moon 3:49 PM CST (2/12) 5:11 AM CST (2/12)
Length of Visible Light 11h 35m
Length of Day
10h 40m
Waxing Gibbous, 95% of the Moon is Illuminated
Feb 12
Waxing Gibbous
Feb 14
Full
Feb 22
Last Quarter
Mar 1
New
Mar 8
First Quarter

Hourly Weather History & Observations

Time (CST) Temp. Windchill Dew Point Humidity Pressure Visibility Wind Dir Wind Speed Gust Speed Precip Events Conditions
12:53 AM 1.9 °F - -2.9 °F 80% 30.37 in 10.0 mi Calm Calm - N/A   Clear
1:53 AM 1.9 °F - -2.9 °F 80% 30.35 in 10.0 mi Calm Calm - N/A   Clear
2:53 AM -0.9 °F - -2.9 °F 91% 30.33 in 10.0 mi Calm Calm - N/A   Clear
3:53 AM 1.0 °F - -2.9 °F 83% 30.31 in 9.0 mi Calm Calm - N/A   Clear
4:53 AM 1.9 °F - -2.0 °F 83% 30.30 in 10.0 mi Calm Calm - N/A   Clear
5:53 AM -0.0 °F - -4.0 °F 83% 30.30 in 10.0 mi Calm Calm - N/A   Clear
6:53 AM -0.0 °F - -2.9 °F 88% 30.29 in 9.0 mi Calm Calm - N/A   Clear
7:53 AM 1.9 °F - -2.0 °F 83% 30.29 in 9.0 mi Calm Calm - N/A   Clear
8:53 AM 9.0 °F - 1.9 °F 73% 30.28 in 10.0 mi Calm Calm - N/A   Clear
9:53 AM 16.0 °F 10.4 °F 3.9 °F 59% 30.28 in 10.0 mi North 3.5 mph - N/A   Clear
10:53 AM 19.9 °F - 8.1 °F 60% 30.24 in 10.0 mi Calm Calm - N/A   Clear
11:53 AM 23.0 °F 18.4 °F 10.0 °F 58% 30.21 in 10.0 mi NW 3.5 mph - N/A   Clear
12:53 PM 27.0 °F 23.0 °F 10.9 °F 51% 30.17 in 10.0 mi North 3.5 mph - N/A   Clear
1:53 PM 28.9 °F - 10.9 °F 47% 30.13 in 10.0 mi Calm Calm - N/A   Clear
2:53 PM 30.9 °F - 12.0 °F 46% 30.10 in 10.0 mi Calm Calm - N/A   Clear
3:53 PM 34.0 °F - 10.9 °F 38% 30.08 in 10.0 mi Calm Calm - N/A   Clear
4:53 PM 33.1 °F - 15.1 °F 48% 30.07 in 10.0 mi Calm Calm - N/A   Clear
5:53 PM 28.0 °F - 14.0 °F 56% 30.07 in 10.0 mi Calm Calm - N/A   Clear
6:53 PM 27.0 °F 23.0 °F 14.0 °F 58% 30.09 in 10.0 mi SSE 3.5 mph - N/A   Clear
7:53 PM 21.0 °F - 14.0 °F 74% 30.09 in 10.0 mi Calm Calm - N/A   Clear
8:53 PM 18.0 °F - 12.0 °F 78% 30.08 in 9.0 mi Calm Calm - N/A   Clear
9:53 PM 16.0 °F - 10.9 °F 81% 30.05 in 8.0 mi Calm Calm - N/A   Clear
10:53 PM 14.0 °F - 10.9 °F 88% 30.05 in 8.0 mi Calm Calm - N/A   Clear
11:53 PM 10.0 °F - 7.0 °F 87% 30.05 in 8.0 mi Calm Calm - N/A   Clear